P/2023 Y2 ( Gibbs )

Japanese version
Home page
Updated on May 13, 2024

---------------------------------------------------------------------

* Profile

Discovery Date December 17, 2023
Magnitude 19.4 mag
Discoverer Alexander R. Gibbs (Mt. Lemmon Survey)

* Pictures

* Orbital Elements

Epoch 2024 Mar. 31.0 TT = JDT 2460400.5
T 2023 Aug.  9.88151 TT                                 Rudenko
q   2.2760469            (2000.0)            P               Q
n   0.13601510     Peri.   16.81686     -0.10322846     -0.98744110
a   3.7446505      Node    79.23005     +0.89799769     -0.14422652
e   0.3921871      Incl.    6.99274     +0.42771957     +0.06448864
P   7.25
>From 88 observations 2022 Oct. 23-2024 Mar. 14, mean residual 0".7.

* Magnitudes Graph

        m1 = 14.5 + 5 log d + 10.0 log r

---------------------------------------------------------------------

The orbital elements are published on M.P.E.C. 2024-F34.
The magnitudes graphs are made with Comet for Windows.

---------------------------------------------------------------------

Copyright(C) Seiichi Yoshida (comet@aerith.net). All rights reserved.